RH
37 35 34 33 32 28 26 25 24 21 19 16 14 13 12 12 12 11 10 9 9 9
42 41 39 37 35 33 33 31 29 25 21 18 17 15 15 15 14 13 13 12 11 10
47 43 40 41 41 40 40 39 36 32 28 24 21 18 17 16 16 15 16 16 15 14
52 49 48 48 46 46 46 45 42 38 35 30 26 21 17 15 14 13 13 14 16 16
55 55 55 56 55 54 52 51 49 46 41 34 28 21 16 15 15 13 13 13 15 16
53 52 51 51 52 52 51 50 51 47 42 39 33 25 22 20 18 16 15 15 17 18
49 48 48 49 49 49 51 52 55 53 49 46 39 31 26 25 24 22 20 19 19 21
49 51 52 54 54 55 60 61 59 58 57 53 42 36 36 36 35 32 28 26 26 27
53 55 58 62 63 64 70 67 67 66 60 53 49 44 45 50 44 39 35 32 30 32
60 60 68 73 71 74 76 73 70 68 64 57 53 54 53 53 49 41 36 33 33 35
65 65 69 76 82 81 81 81 77 72 67 60 56 54 56 53 48 41 35 33 35 40
68 72 75 79 84 85 84 81 75 67 62 59 55 53 53 51 45 40 36 38 41 50
66 69 78 81 85 86 84 79 75 71 67 60 53 51 46 51 49 44 41 42 51 60
68 70 71 78 85 84 84 81 76 70 63 56 55 48 48 54 60 56 52 53 57 64